Regional Weather Roundup
Issued by NWS

Home | Current Version | Previous Version | Graphics & Text | Print | Product List | Glossary On
Versions: 1 2 3 4 5 6 7 8 9 10 11 12 13 14 15 16 17 18 19 20 21 22 23 24 25 26 27 28 29 30 31 32 33 34 35 36 37 38 39 40 41 42 43 44 45 46 47 48 49 50
000
ASUS43 KMPX 200201
RWRMN
WEATHER ROUNDUP FOR MINNESOTA
NATIONAL WEATHER SERVICE TWIN CITIES/CHANHASSEN MN
900 PM CDT TUE AUG 19 2014


NOTE: "FAIR" INDICATES FEW OR NO CLOUDS BELOW 12,000 FEET WITH NO
SIGNIFICANT WEATHER AND/OR OBSTRUCTIONS TO VISIBILITY. N/A MEANS
CURRENT SKY AND/OR WEATHER CONDITIONS ARE NOT AVAILABLE.

MNZ060>063-068>070-200300-
   Twin Cities Metro

CITY           SKY/WX    TMP DP  RH WIND       PRES   REMARKS
TWIN CITIES    PTCLDY    74  64  71 SE5       29.77R
ST PAUL        PTCLDY    70  68  93 CALM      29.77R
CRYSTAL        CLOUDY    72  66  81 CALM      29.76R
BLAINE         PTCLDY    68  66  94 CALM      29.77R
LAKEVILLE      PTCLDY    70  64  83 W3        29.77R
EDEN PRAIRIE   PTCLDY    71  65  81 CALM      29.76R
SOUTH ST PAUL  MOCLDY    71  66  84 CALM      29.77R
LAKE ELMO      FOG       66  66 100 CALM      29.79R VSB 1/4
$$
MNZ001>005-007-008-013>017-022>024-027-028-200300-
   Northwest Minnesota

CITY           SKY/WX    TMP DP  RH WIND       PRES   REMARKS
BEMIDJI        CLEAR     65  61  88 E5        29.79R
HALLOCK        CLEAR     70  66  88 E3        29.75R
ROSEAU         CLEAR     66  61  82 E5        29.79R
WARROAD        CLEAR     70  63  78 E7        29.79R
THIEF RVR FALL CLEAR     68  63  83 CALM      29.77S
CROOKSTON      CLEAR     73  63  68 E3        29.76S
FOSSTON        CLEAR     63  57  82 CALM      29.79R
DETROIT LAKES  CLEAR     70  64  83 CALM      29.80R
MOORHEAD       CLEAR     73  72  94 CALM      29.76R
PARK RAPIDS    CLEAR     71  60  68 NE3       29.79R
MAHNOMEN       FAIR      70  65  84 E3        29.77R
$$
MNZ006-009>011-018-025>026-200300-
   North Central Minnesota

CITY           SKY/WX    TMP DP  RH WIND       PRES   REMARKS
BAUDETTE       CLEAR     65  61  87 E3        29.79R
FLAG ISLAND    CLEAR     68  63  83 E3        29.78R
INTL FALLS     CLEAR     58  57  97 CALM      29.80R
WASKISH        CLEAR     64  61  88 CALM      29.79R
BIG FORK       CLEAR     61  59  94 CALM      29.81R
LONGVILLE      MOCLDY    63  63 100 CALM      29.80R
GRAND RAPIDS   PTCLDY    63  59  88 CALM      29.81R
CRANE LAKE     PTCLDY    59  57  94 CALM      29.82R
ORR            PTCLDY    63  57  82 CALM      29.79R
COOK           MOCLDY    63  61  94 CALM      29.82R
WALKER         FAIR      64  63  96 CALM      29.79R
$$
MNZ012-019>021-037-200300-
   Northeast Minnesota

CITY           SKY/WX    TMP DP  RH WIND       PRES   REMARKS
DULUTH         MOCLDY    66  59  78 NE3       29.80R
ELY            CLOUDY    63  61  94 CALM      29.81R
HIBBING        CLOUDY    63  59  87 CALM      29.81R
EVELETH        CLOUDY    63  59  88 CALM      29.82R
DULUTH HARBOR  CLOUDY    64  61  88 N3        29.79R
TWO HARBORS    CLOUDY    61  55  82 CALM      29.78R
SILVER BAY     PTCLDY    61  61 100 CALM      29.78R
GRAND MARAIS     N/A     60  59  96 S5        29.79R
G MARAIS ARPRT CLOUDY    57  54  88 N6        29.83R
$$
MNZ029>031-032-039>041-046>048-054>057-064-200300-
   West Central Minnesota

CITY           SKY/WX    TMP DP  RH WIND       PRES   REMARKS
FERGUS FALLS   CLEAR     73  61  64 E3        29.77R
WHEATON        PTCLDY    68  64  88 SE5       29.79R
MORRIS         CLEAR     72  64  78 CALM      29.78R
ALEXANDRIA     CLEAR     71  64  78 CALM      29.80R
ELBOW LAKE     FAIR      73  64  73 E3        29.78R
WADENA         CLEAR     66  63  88 CALM      29.79R
GLENWOOD       CLEAR     70  64  83 MISG      29.80R
APPLETON       CLEAR     73  66  78 CALM      29.77R
BENSON         CLEAR     68  66  94 CALM      29.78R
ORTONVILLE     CLEAR     75  64  69 E5        29.78R
MADISON        CLEAR     73  70  88 CALM      29.78R
WILLMAR        FAIR      72  64  78 CALM      29.80R
$$
MNZ033>034-036-042>043-049>051-058-059-200300-
   Central Minnesota

CITY           SKY/WX    TMP DP  RH WIND       PRES   REMARKS
ST CLOUD       CLEAR     71  65  81 CALM      29.77R
SAUK CENTRE    FAIR      71  61  71 CALM      29.79R
PAYNESVILLE    PTCLDY    66  64  91 CALM      29.79R
AITKIN         CLEAR     66  61  82 CALM      29.78R
PINE RIVER     CLEAR     64  63  94 CALM      29.83R
BRAINERD       CLEAR     66  63  90 CALM      29.79R
STAPLES        PTCLDY    66  63  88 CALM      29.79R
LONG PRAIRIE   FAIR      68  61  77 CALM      29.80R
LITTLE FALLS   CLEAR     66  63  88 CALM      29.79R
LITCHFIELD     CLEAR     72  68  88 CALM      29.79R
BUFFALO        MOCLDY    73  64  74 CALM      29.78R
MAPLE LAKE     PTCLDY    72  67  85 CALM      29.78R
$$
MNZ037-044-045-052-053-200300-
   East Central Minnesota

CITY           SKY/WX    TMP DP  RH WIND       PRES   REMARKS
PRINCETON      MOCLDY    70  66  88 CALM      29.78R
MORA           MOCLDY    64  63  94 CALM      29.80R
CAMBRIDGE      CLEAR     70  61  73 CALM      29.76R
RUSH CITY      CLOUDY    69  64  83 CALM      29.78R
MOOSE LAKE     MOCLDY    66  61  82 E3        29.78R
HINCKLEY       CLOUDY    66  64  94 CALM      29.79R
CLOQUET        MOCLDY    63  61  94 CALM      29.81R
MCGREGOR       MOCLDY    68  61  77 NE3       29.80R
$$
MNZ071>073-080-081-089-090-097-098-200300-
   Southwest Minnesota

CITY           SKY/WX    TMP DP  RH WIND       PRES   REMARKS
MONTEVIDEO     CLEAR     72  64  78 CALM      29.79R
GRANITE FALLS  CLEAR     68  66  94 CALM      29.80R
CANBY          CLEAR     73  67  83 CALM      29.80R
MARSHALL       CLEAR     73  64  73 CALM      29.78R
REDWOOD FALLS  CLEAR     74  65  73 NW3       29.78R
OLIVIA         CLEAR     72  64  78 CALM      29.77S
PIPESTONE      CLEAR     73  64  73 CALM      29.82R
WINDOM         CLEAR     72  66  83 CALM      29.81R
WORTHINGTON    CLEAR     72  12  10 SW3       29.82S
JACKSON        CLEAR     68  64  88 CALM      29.82R
TRACY          CLEAR     73  66  80 CALM      29.80R
SLAYTON        CLEAR     72  66  81 CALM      29.82R
$$
MNZ065>067-074>077-082>085-091>093-200300-
   South Central Minnesota

CITY           SKY/WX    TMP DP  RH WIND       PRES   REMARKS
MANKATO        CLEAR     73  63  68 NW3       29.78R
NEW ULM        CLEAR     73  66  78 NW3       29.78R
ST JAMES       CLEAR     72  64  78 CALM      29.80R
FAIRMONT       CLEAR     72  63  73 CALM      29.80R
GLENCOE        CLEAR     73  62  69 W3        29.77R
FARIBAULT      PTCLDY    70  64  83 CALM      29.79R
OWATONNA       CLEAR     68  64  88 CALM      29.80R
WASECA         CLEAR     66  59  77 SE3       29.81R
ALBERT LEA     CLEAR     72  66  83 CALM      29.79R
$$
MNZ078>079-086>088-094>096-200300-
   Southeast Minnesota

CITY           SKY/WX    TMP DP  RH WIND       PRES   REMARKS
ROCHESTER      MOCLDY    69  64  84 W3        29.80R
RED WING       CLOUDY    72  64  78 CALM      29.76R HAZE
STANTON        CLOUDY    72  65  81 CALM      29.77R
DODGE CENTER   PTCLDY    68  66  94 CALM      29.80R
WINONA         PTCLDY    70  63  78 CALM      29.77R
AUSTIN         PTCLDY    72  64  78 NE3       29.80R
PRESTON        CLOUDY    70  67  89 W5        29.80R
$$
ABBREVIATIONS USED IN REMARKS
   TC - TEMPERATURES IN CELSIUS
  WCI - WIND CHILL INDEX
   HX - HEAT INDEX
  VSB - VISIBILITY
$$



USA.gov is the U.S. government's official web portal to all federal, state and local government web resources and services.